| time (UTC) | temp F | wind direction | speed MPH | gust MPH | rain 1hr in | rain 24hr in | rain mn in | humidity % | barometer mb |
| 20260506183005 | 58 | 133 | 2.0 | 8.0 | 0.02 | 0.02 | 0.02 | 85 | 1009.7 |
| 20260506181506 | 59 | 276 | 5.0 | 12.0 | 0.01 | 0.01 | 0.01 | 82 | 1010.1 |
| 20260506180008 | 60 | 171 | 7.0 | 12.0 | 0.00 | 0.00 | 0.00 | 79 | 1010.5 |
| 20260506174519 | 61 | 153 | 7.0 | 16.0 | 0.00 | 0.00 | 0.00 | 77 | 1010.6 |
| 20260506173016 | 61 | 285 | 3.0 | 15.0 | 0.00 | 0.00 | 0.00 | 77 | 1010.8 |
| 20260506171525 | 61 | 207 | 5.0 | 21.0 | 0.00 | 0.00 | 0.00 | 77 | 1010.8 |
| 20260506170002 | 61 | 200 | 10.0 | 17.0 | 0.00 | 0.00 | 0.00 | 77 | 1011.4 |
| 20260506164502 | 61 | 158 | 4.0 | 20.0 | 0.00 | 0.00 | 0.00 | 76 | 1011.0 |
| 20260506163003 | 62 | 147 | 6.0 | 16.0 | 0.00 | 0.00 | 0.00 | 74 | 1011.2 |
| 20260506161503 | 63 | 91 | 3.0 | 11.0 | 0.00 | 0.00 | 0.00 | 73 | 1011.5 |
| 20260506160004 | 63 | 252 | 6.0 | 18.0 | 0.00 | 0.00 | 0.00 | 74 | 1012.0 |
| 20260506154503 | 63 | 202 | 6.0 | 20.0 | 0.00 | 0.00 | 0.00 | 73 | 1011.8 |
| 20260506153002 | 64 | 248 | 8.0 | 14.0 | 0.00 | 0.00 | 0.00 | 73 | 1012.0 |
| 20260506151503 | 64 | 246 | 9.0 | 17.0 | 0.00 | 0.00 | 0.00 | 71 | 1011.8 |
| 20260506150002 | 64 | 162 | 6.0 | 24.0 | 0.00 | 0.00 | 0.00 | 73 | 1011.9 |
| 20260506144502 | 65 | 247 | 3.0 | 16.0 | 0.00 | 0.00 | 0.00 | 73 | 1012.0 |
| 20260506143006 | 63 | 207 | 4.0 | 18.0 | 0.00 | 0.00 | 0.00 | 74 | 1012.2 |
| 20260506141503 | 63 | 145 | 3.0 | 16.0 | 0.00 | 0.00 | 0.00 | 75 | 1012.2 |
| 20260506140007 | 62 | 124 | 4.0 | 14.0 | 0.00 | 0.00 | 0.00 | 76 | 1012.2 |
| 20260506134501 | 62 | 227 | 4.0 | 17.0 | 0.00 | 0.00 | 0.00 | 76 | 1011.9 |
| 20260506133004 | 63 | 122 | 5.0 | 12.0 | 0.00 | 0.00 | 0.00 | 75 | 1011.8 |
| 20260506131503 | 63 | 243 | 4.0 | 13.0 | 0.00 | 0.00 | 0.00 | 74 | 1012.1 |
| 20260506130005 | 62 | 144 | 4.0 | 18.0 | 0.00 | 0.00 | 0.00 | 76 | 1012.2 |
| 20260506124504 | 62 | 192 | 4.0 | 11.0 | 0.00 | 0.00 | 0.00 | 76 | 1012.3 |
| 20260506121505 | 61 | 236 | 9.0 | 17.0 | 0.00 | 0.00 | 0.00 | 77 | 1012.4 |
| 20260506120003 | 60 | 207 | 4.0 | 9.0 | 0.00 | 0.00 | 0.00 | 79 | 1012.4 |
| 20260506114503 | 59 | 217 | 1.0 | 12.0 | 0.00 | 0.00 | 0.00 | 81 | 1012.4 |
| 20260506113005 | 59 | 192 | 4.0 | 11.0 | 0.00 | 0.00 | 0.00 | 82 | 1012.4 |
| 20260506110006 | 57 | 162 | 3.0 | 5.0 | 0.00 | 0.00 | 0.00 | 84 | 1012.5 |
| 20260506104504 | 57 | 133 | 3.0 | 7.0 | 0.00 | 0.00 | 0.00 | 85 | 1012.4 |
| 20260506103013 | 57 | 156 | 2.0 | 12.0 | 0.00 | 0.00 | 0.00 | 85 | 1012.3 |
| 20260506101505 | 57 | 167 | 4.0 | 10.0 | 0.00 | 0.00 | 0.00 | 85 | 1012.2 |
| 20260506100006 | 57 | 123 | 3.0 | 8.0 | 0.00 | 0.00 | 0.00 | 85 | 1012.1 |
| 20260506094510 | 57 | 221 | 3.0 | 8.0 | 0.00 | 0.00 | 0.00 | 85 | 1012.3 |
| 20260506093008 | 57 | 129 | 2.0 | 11.0 | 0.00 | 0.00 | 0.00 | 85 | 1012.1 |
| 20260506091508 | 57 | 162 | 1.0 | 8.0 | 0.00 | 0.00 | 0.00 | 84 | 1012.1 |
| 20260506090008 | 57 | 197 | 1.0 | 5.0 | 0.00 | 0.00 | 0.00 | 84 | 1012.4 |
| 20260506084515 | 58 | 218 | 1.0 | 12.0 | 0.00 | 0.00 | 0.00 | 83 | 1012.5 |
| 20260506083005 | 58 | 285 | 3.0 | 8.0 | 0.00 | 0.00 | 0.00 | 83 | 1012.5 |
| 20260506081509 | 58 | 177 | 3.0 | 9.0 | 0.00 | 0.00 | 0.00 | 82 | 1012.5 |
| 20260506073003 | 58 | 212 | 4.0 | 12.0 | 0.00 | 0.00 | 0.00 | 82 | 1012.7 |
| 20260506071503 | 58 | 181 | 1.0 | 6.0 | 0.00 | 0.00 | 0.00 | 82 | 1012.7 |
| 20260506061512 | 58 | 197 | 1.0 | 7.0 | 0.00 | 0.00 | 0.00 | 81 | 1012.8 |
| 20260506044502 | 59 | 277 | 3.0 | 8.0 | 0.00 | 0.00 | 0.00 | 77 | 1013.3 |
| 20260506043012 | 59 | 195 | 1.0 | 10.0 | 0.00 | 0.00 | 0.00 | 76 | 1013.3 |
| 20260506041523 | 60 | 210 | 4.0 | 15.0 | 0.00 | 0.00 | 0.00 | 75 | 1013.3 |
| 20260506040010 | 60 | 213 | 2.0 | 13.0 | 0.00 | 0.00 | 0.00 | 74 | 1013.3 |
| 20260506034508 | 60 | 143 | 3.0 | 11.0 | 0.00 | 0.00 | 0.00 | 73 | 1013.3 |
| 20260506031509 | 61 | 229 | 7.0 | 20.0 | 0.00 | 0.00 | 0.00 | 71 | 1013.1 |
| 20260506030007 | 61 | 150 | 4.0 | 15.0 | 0.00 | 0.00 | 0.00 | 71 | 1013.1 |
| 20260506024519 | 61 | 188 | 9.0 | 16.0 | 0.00 | 0.00 | 0.00 | 71 | 1013.1 |
| 20260506023015 | 61 | 277 | 2.0 | 14.0 | 0.00 | 0.00 | 0.00 | 70 | 1012.9 |
| 20260506021508 | 61 | 148 | 5.0 | 17.0 | 0.00 | 0.00 | 0.00 | 70 | 1012.9 |
| 20260506014516 | 61 | 274 | 3.0 | 16.0 | 0.00 | 0.00 | 0.00 | 70 | 1012.7 |
| 20260506010024 | 60 | 231 | 0.0 | 12.0 | 0.00 | 0.00 | 0.00 | 71 | 1012.5 |
| 20260506003014 | 59 | 214 | 0.0 | 8.0 | 0.00 | 0.00 | 0.00 | 72 | 1012.0 |
| 20260506001513 | 59 | 113 | 1.0 | 5.0 | 0.00 | 0.00 | 0.00 | 73 | 1011.6 |
| 20260505234513 | 59 | 206 | 2.0 | 7.0 | 0.00 | 0.00 | 0.00 | 73 | 1010.9 |
| 20260505233006 | 60 | 239 | 3.0 | 10.0 | 0.00 | 0.00 | 0.00 | 72 | 1010.6 |
| 20260505230018 | 60 | 222 | 3.0 | 16.0 | 0.00 | 0.00 | 0.00 | 71 | 1011.2 |
| 20260505224529 | 61 | 205 | 6.0 | 14.0 | 0.00 | 0.00 | 0.00 | 69 | 1011.1 |
| 20260505221512 | 62 | 290 | 4.0 | 15.0 | 0.00 | 0.00 | 0.00 | 67 | 1010.7 |
| 20260505220024 | 62 | 160 | 4.0 | 14.0 | 0.00 | 0.00 | 0.00 | 67 | 1010.7 |
| 20260505214513 | 63 | 153 | 7.0 | 21.0 | 0.00 | 0.00 | 0.00 | 66 | 1010.9 |
| 20260505213035 | 64 | 193 | 11.0 | 15.0 | 0.00 | 0.00 | 0.00 | 65 | 1010.8 |
| 20260505211521 | 65 | 152 | 6.0 | 16.0 | 0.00 | 0.00 | 0.00 | 64 | 1010.7 |
| 20260505204527 | 67 | 166 | 8.0 | 14.0 | 0.00 | 0.00 | 0.00 | 62 | 1010.4 |
| 20260505203017 | 66 | 153 | 4.0 | 18.0 | 0.00 | 0.00 | 0.00 | 63 | 1010.3 |
| 20260505201516 | 66 | 232 | 9.0 | 17.0 | 0.00 | 0.00 | 0.00 | 62 | 1010.5 |
| 20260505200010 | 67 | 278 | 3.0 | 15.0 | 0.00 | 0.00 | 0.00 | 63 | 1010.7 |
| 20260505194508 | 67 | 284 | 2.0 | 14.0 | 0.00 | 0.00 | 0.00 | 63 | 1010.7 |
| 20260505193025 | 67 | 173 | 5.0 | 16.0 | 0.00 | 0.00 | 0.00 | 64 | 1010.7 |
| 20260505191504 | 67 | 250 | 5.0 | 17.0 | 0.00 | 0.00 | 0.00 | 63 | 1010.8 |